Regional Weather Roundup
Issued by NWS Little Rock, AR

Home | Current Version | Previous Version | Graphics & Text | Print | Product List | Glossary On
Versions: 1 2 3 4 5 6 7 8 9 10 11 12 13 14 15 16 17 18 19 20 21 22 23 24 25 26 27 28 29 30 31 32 33 34 35 36 37 38 39 40 41 42 43 44 45 46 47 48 49 50
970
ASUS44 KLZK 182005
RWRLZK

WEATHER ROUNDUP FOR ARKANSAS
NATIONAL WEATHER SERVICE LITTLE ROCK AR
200 PM CST WED JAN 18 2017

NOTE: "FAIR" INDICATES FEW OR NO CLOUDS BELOW 12,000 FEET WITH NO
SIGNIFICANT WEATHER AND/OR OBSTRUCTIONS TO VISIBILITY.

ARZ001-003-010-029-182100-
NORTHWEST ARKANSAS

CITY           SKY/WX    TMP DP  RH WIND       PRES   REMARKS
FAYETTEVILLE   CLOUDY    49  44  83 SE3       30.06F
FORT SMITH     CLOUDY    46  42  86 NE9       30.08F
HARRISON       CLOUDY    43  40  89 SE8       30.09F
BENTONVILLE    CLOUDY   N/A N/A N/A S5        30.06F
ROGERS         CLOUDY    47  40  76 E7        30.06F
SILOAM SPGS    CLOUDY    50  39  66 SW5       30.06F
HIGHFILL       CLOUDY    50  42  74 SE5       30.05F
SPRINGDALE     CLOUDY    50  43  76 SE5       30.08F
$$

ARZ004-005-016-182100-
NORTH CENTRAL ARKANSAS

CITY           SKY/WX    TMP DP  RH WIND       PRES   REMARKS
BATESVILLE     CLOUDY    46  39  76 E5        30.14F
FLIPPIN        CLOUDY    43  36  75 E3        30.10F
MTN HOME       CLOUDY    42  38  85 SE6       30.11F
$$

ARZ040-041-182100-
WEST CENTRAL ARKANSAS

CITY           SKY/WX    TMP DP  RH WIND       PRES   REMARKS
MENA           CLOUDY    46  46 100 E8        30.05F VSB 3/4
MOUNT IDA      CLOUDY    47  45  93 E5        30.04F FOG
$$

ARZ009-017-025-026-028-182100-
NORTHEAST ARKANSAS

CITY           SKY/WX    TMP DP  RH WIND       PRES   REMARKS
CORNING        CLOUDY    45  41  87 NE8       30.16F
JONESBORO      CLOUDY    47  42  83 NE10      30.14F
NEWPORT        CLOUDY    47  43  86 NE9       30.15F
WALNUT RIDGE   CLOUDY    46  39  76 NE6       30.16F
BLYTHEVILLE    CLOUDY    49  43  80 NE8       30.15F
NW BLYTHEVILLE CLOUDY    46  43  87 NE6       30.14
$$

ARZ022-023-033-042-044-182100-
CENTRAL ARKANSAS

CITY           SKY/WX    TMP DP  RH WIND       PRES   REMARKS
LITTLE ROCK    CLOUDY    48  44  86 CALM      30.13S
JACKSONVILLE   CLOUDY    48  43  81 NE6       30.12S
SEARCY         LGT RAIN  48  44  86 NE9       30.14F
HOT SPRINGS    CLOUDY    48  46  93 CALM      30.11S FOG
RUSSELLVILLE   CLOUDY    47  41  80 CALM      30.11F
CLINTON        CLOUDY    46  43  87 E5        30.11F
$$

ARZ036-182100-
EAST ARKANSAS

CITY           SKY/WX    TMP DP  RH WIND       PRES   REMARKS
WEST MEMPHIS   CLOUDY    52  44  74 E6        30.11F
$$

ARZ050-053-066-070-073-182100-
SOUTHWEST ARKANSAS

CITY           SKY/WX    TMP DP  RH WIND       PRES   REMARKS
ARKADELPHIA    CLOUDY    48  47  96 E6        30.09F FOG
CAMDEN         CLOUDY    50  46  87 NE9       30.08F
TEXARKANA      RAIN      49  49 100 E8        30.02F FOG
EL DORADO      CLOUDY    52  51  97 N5        30.06F FOG
DE QUEEN       CLOUDY    49  49 100 E8        30.02F FOG
$$

ARZ056-057-069-182100-
SOUTHEAST ARKANSAS

CITY           SKY/WX    TMP DP  RH WIND       PRES   REMARKS
PINE BLUFF     CLOUDY    51  48  89 N5        30.09F
STUTTGART      CLOUDY    52  41  66 NE10      30.10F
MONTICELLO     LGT RAIN  51  50  96 E9        30.05F FOG

$$






USA.gov is the U.S. government's official web portal to all federal, state and local government web resources and services.